Regional Weather Roundup
Issued by NWS

Home | Current Version | Previous Version | Graphics & Text | Print | Product List | Glossary On
Versions: 1 2 3 4 5 6 7 8 9 10 11 12 13 14 15 16 17 18 19 20 21 22 23 24 25 26 27 28 29 30 31 32 33 34 35 36 37 38 39 40 41 42 43 44 45 46 47 48 49 50
000
ASUS44 KMEG 021910
RWRTN
TENNESSEE HOURLY STATE WEATHER ROUNDUP
NATIONAL WEATHER SERVICE MEMPHIS TN
100 PM CST FRI DEC 02 2016

TNZ002-004-019-021-049-052-054-088>092-022000-
WEST TENNESSEE

CITY           SKY/WX    TMP DP  RH WIND       PRES   REMARKS
MEMPHIS INTL   MOSUNNY   61  28  28 SW6       30.25F
NWS MEMPHIS      N/A     60 N/A N/A MISG        N/A
JACKSON        SUNNY     58  34  40 NW8       30.25S
DYERSBURG      SUNNY    N/A N/A N/A CALM      30.24F
UNION CITY     SUNNY     54  30  40 CALM      30.24F
PARIS          SUNNY     52  28  40 CALM      30.24F
HUNTINGDON     SUNNY     55  30  38 N6        30.23F
LEXINGTON      SUNNY     59  27  29 SW5       30.23F
$$

TNZ008-025-027-028-033-062-065-066-022000-
NORTH MIDDLE TENNESSEE

CITY           SKY/WX    TMP DP  RH WIND       PRES   REMARKS
NASHVILLE      MOSUNNY   57  27  31 NW6       30.24F
PORTLAND       SUNNY     50  28  43 VRB6G12   30.24S
CLARKSVILLE    SUNNY     52  29  41 VRB6      30.24F
SMYRNA         SUNNY     57  31  37 N7        30.24F
CROSSVILLE     SUNNY     51  25  36 W10G17    30.21F
$$

TNZ061-075-076-078-094-096-097-022000-
SOUTH MIDDLE TENNESSEE

CITY           SKY/WX    TMP DP  RH WIND       PRES   REMARKS
FAYETTEVILLE   SUNNY     57  28  33 NW7       30.23F
TULLAHOMA      SUNNY     57  25  28 NW5       30.23F
WINCHESTER     SUNNY     55  28  35 CALM      30.24F
MCMINNVILLE    SUNNY     57  28  33 VRB7      30.22F
COLUMBIA       SUNNY     59  30  33 N7        30.21F
SHELBYVILLE    SUNNY     61  30  31 W3        30.24F
$$

TNZ017-018-042-046-047-022000-
NORTHEAST TENNESSEE

CITY           SKY/WX    TMP DP  RH WIND       PRES   REMARKS
TRI CITIES     SUNNY     50  29  44 W13       30.17F
ELIZABETHTON   DRIZZLE   48  28  46 NW12G17   30.16F
$$

TNZ012-013-036-069-073-074-022000-
CENTRAL EAST TENNESSEE

CITY           SKY/WX    TMP DP  RH WIND       PRES   REMARKS
KNOXVILLE      MOSUNNY   52  26  36 VRB5      30.21F
OAK RIDGE      SUNNY     55  27  34 VRB3      30.22F
DOWNTOWN KNOXV SUNNY     55  30  38 W8        30.22F
GATLINBURG     SUNNY     54  25  32 CALM      30.21F
MORRISTOWN     SUNNY     50  28  43 W9G16     30.19F
JACKSBORO      SUNNY     54  27  35 VRB3G14   30.23F
$$

TNZ083-085-099-022000-
SOUTHEAST TENNESSEE

CITY           SKY/WX    TMP DP  RH WIND       PRES   REMARKS
CHATTANOOGA    MOSUNNY   58  28  32 CALM      30.23F
$$

SKY/WX REPORTED AS FAIR MEANS FEW OR NO CLOUDS BELOW
12 THOUSAND FEET.





USA.gov is the U.S. government's official web portal to all federal, state and local government web resources and services.